sat.trackr.live / text

‹ back to catalog

ONEWEB-0697

NORAD 61603 · 2024-188K

PAYLOAD ACTIVE UNKNOWN

§ Identity

Operator
Country
UK
Launch date
2024-10-20
Launch site
AFWTR
Launch vehicle
Mass (kg)
RCS (m²)

Purposes: comms

External: N2YO · Heavens-Above · Gunter

§ Orbital elements

Epoch: 2026-09-19T14:29:27.628800Z

Period
109.80 min
Inclination
87.8967°
Eccentricity
0.0001103
Mean motion
13.11416371 rev/d
Perigee alt
1,216.8 km
Apogee alt
1,218.5 km
Semi-major
7,595.8 km
B*
-6.0154e-4
RAAN
2.2969°
Arg perigee
92.6377°
Mean anomaly
267.4877°
Rev number
9,682

§ Raw data

ONEWEB-06971 61603U 24188K   26262.60379200 -.00000201  00000+0 -60154-3 0  99972 61603  87.8967   2.2969 0001103  92.6377 267.4877 13.11416371 96824

JSON: /api/v1/satellites/61603 · /tle

For live sub-satellite position, see the globe view (requires WebGL).

§ Visibility from observer

Set your observer location to see the next 7 days of passes ≥ 10°. The values pass through the URL so the page stays shareable.

No JS? Fill the form by hand. The geolocation button needs JavaScript.